STARLINK-32294, 61675

Orbit data source: Space-Track

STARLINK-32294, 61675 is a payload satellite owned by SpaceX/Seattle (US) in LEO that was launched on Sat, 26 Oct 2024 UTC via an FALCON 9 launch vehicle from the Air Force Eastern Test Range (AFETR). Payload-class satellites include a variety of spacecraft equipped with specific instruments for various scientific and technological missions. These include communications satellites like Starlink; space stations such as the ISS; scientific satellites like the Hubble; Earth observation satellites from companies like Planet Labs, Umbra, and HawkEye 360; GPS; miniature CubeSats for education and research; and military/defense satellites.

Loading next visibility...
Identifier
61675, 2024-193Q
Orbit
LEO
Country
Flag of USUS
Related business
Manufacturer
SpaceX/Seattle
Mission
Operational Commercial Communications
Bus & Motor
STARLINK V2M, Unknown motor
Mass
730 kg wet, ~700 kg dry
Launch date (UTC)
2024-10-26 (10 months ago)
Launch vehicle
FALCON 9
Launch site
Air Force Eastern Test Range (AFETR)
Object type
Payload
Rocket body
Debris
Shape & HBR
Box + 2 Pan, 14.5 m
Radar Cross Section
36.964 m², Large (>1 m²)

Expand to show TLE details & history
Last TLE update: 12 hours ago

TLE from 12 hours ago
0 STARLINK-32294
1 61675U 24193Q   25243.45306830  .00000367  00000-0  24522-4 0  9994
2 61675  53.1587 254.4164 0000695  72.9165 287.1911 15.30193847 47407
Epoch: 2025-08-31T10:52Z
TLE epoch observation values (Epoch: 2025-08-31T10:52:25.101Z)
Latitude
-0.00007°
Longitude
111.43896°
Altitude
475.992 km
Speed
7.629 km/s
True Right ascension
16h 57m 39s
True Declination
0° 00' 00"
Sunlit
Object was in daylight at epoch
Visualization orbit readout
Latitude
Unknown
Longitude
Unknown
Altitude
Unknown
Speed
Unknown
Apparent Right ascension
Unknown
Apparent Declination
Unknown
Sunlit
N/A
Visualization observer readout
Local Sidereal Time
14:08:34
Azimuth
Unknown
Elevation
Unknown
Doppler factor
Unknown
Orbital elements
Apogee altitude
475.966 km
Perigee altitude
475.014 km
Semi-major axis
6,853.627 km
Eccentricity
0.00007
Inclination
53.1587°
RAAN
254.4164°
Arg. of periapsis
72.9165°
True anomaly
287.18349°
Mean anomaly
287.1911°
Eccentric anomaly
287.1873°
Mean motion
3.82527 °/min
Orbital period
94.11 mins
BSTAR
0.000024522
Loading maneuver chart data...
Computing Atmospheric mass density...
Loading historical data...
Loading historical data...
Loading historical data...
Loading historical data...
Loading historical data...
Loading historical data...
Loading historical data...

Documentation

Showing up to 5 results
|